Wind_Speed
14 15 16 18 19 19 19 19 20 20 20 21 22 22 20 20 20 20 20 20 21 21 21 21 21 22 22 23 23 23 23 24 25 25 26 26 26 26 27 27 28 28 28
13 14 15 16 17 18 20 20 20 20 20 21 21 21 20 21 21 21 21 22 23 23 23 23 24 24 25 26 26 27 27 27 28 28 29 30 31 31 31 31 32 32 32
11 13 14 15 16 16 17 18 19 20 20 21 21 21 22 22 22 23 24 24 24 25 25 26 27 27 28 28 29 30 30 31 31 32 33 34 34 34 35 35 35 35 35
9 11 13 14 15 15 16 17 18 19 20 20 21 21 22 23 24 25 25 26 26 27 28 29 29 30 31 32 32 33 33 33 34 35 36 37 37 37 37 37 38 38 38
9 10 11 13 14 15 16 16 17 18 19 20 21 22 24 25 26 27 27 28 29 30 31 32 32 33 34 35 35 36 36 37 37 38 39 39 40 40 40 40 40 40 40
10 11 12 13 13 14 15 16 17 18 19 20 22 23 25 26 27 28 29 29 31 32 33 34 35 36 37 37 38 38 39 40 40 41 41 42 42 43 43 43 43 43 42
12 13 13 13 14 15 16 16 17 18 20 22 24 25 26 27 29 30 32 33 33 34 35 37 37 38 39 39 39 40 42 43 43 43 44 44 45 45 46 46 46 46 45
16 16 16 16 17 17 18 20 21 22 23 24 25 27 29 29 31 31 32 33 34 36 37 38 39 40 40 41 41 42 42 43 44 45 46 46 47 47 48 48 48 48 48
18 19 19 19 19 20 21 22 24 25 26 27 28 29 30 32 32 33 35 35 36 37 39 40 41 42 43 43 44 43 43 44 45 46 46 47 47 49 50 51 51 52 51
20 21 21 22 22 23 24 25 27 28 28 30 31 31 32 33 34 36 38 38 38 39 40 41 42 43 44 44 45 45 45 46 47 47 48 49 50 51 51 52 53 54 54
22 22 23 24 25 26 27 27 28 28 30 30 31 32 33 34 34 36 38 39 40 41 41 42 43 43 44 44 45 46 47 48 49 50 50 51 52 52 54 54 54 55 55
24 24 24 26 27 28 28 29 29 30 31 32 32 33 34 35 36 38 39 40 41 42 43 44 45 45 46 46 48 49 50 51 52 52 53 53 53 54 55 55 55 55 55
25 25 26 28 29 29 30 31 31 32 33 34 35 35 36 37 38 39 40 42 42 43 44 45 46 48 49 50 50 51 52 53 54 54 54 54 55 56 56 56 56 56 56
27 27 28 30 31 30 31 32 32 33 34 35 35 36 38 39 40 41 42 43 45 46 47 48 50 51 51 52 52 53 53 54 54 54 55 55 56 57 58 58 58 58 58
28 28 30 32 32 32 33 33 33 33 34 35 37 38 40 41 41 42 43 45 46 47 49 50 51 52 52 53 53 53 54 54 55 55 55 55 55 57 57 58 58 57 57
28 29 30 31 33 33 34 34 34 35 36 37 39 40 41 41 42 44 45 47 48 49 50 51 51 52 52 53 53 54 54 55 55 56 56 56 56 56 56 56 56 55 55
27 29 29 30 31 32 33 33 35 36 37 39 40 41 43 44 45 46 48 49 50 49 50 50 51 51 52 52 53 53 54 55 55 55 55 55 55 54 55 55 54 54 53
26 28 29 30 31 33 34 35 37 38 39 41 42 43 45 46 47 48 49 49 49 49 50 50 50 51 51 51 51 52 52 52 52 52 52 51 51 51 51 51 50 50 49
27 28 30 31 33 34 36 37 39 40 41 43 44 45 46 47 48 48 48 48 49 49 49 49 49 49 49 49 50 50 50 50 50 50 49 49 49 49 48 46 45 43 42
29 30 32 33 35 36 38 39 41 42 43 44 45 46 46 47 47 47 46 46 46 46 45 45 46 47 47 47 47 47 47 47 47 46 46 45 45 44 43 41 40 39 38
31 32 34 35 37 38 40 41 42 43 44 45 45 46 45 45 44 44 44 43 42 42 42 43 43 43 43 44 44 44 44 43 42 42 41 41 40 40 39 38 37 36 35
33 35 36 38 39 40 41 42 42 43 44 44 44 44 43 42 42 41 40 40 40 41 41 42 42 41 41 41 41 40 40 39 39 38 37 36 36 35 35 34 34 33 32
36 37 38 39 40 40 41 42 42 42 42 42 41 41 40 40 39 38 38 39 39 40 40 40 39 38 38 38 37 37 36 35 34 33 32 32 32 31 31 30 30 30 29
37 38 39 39 39 39 39 40 40 40 40 40 39 38 37 37 37 37 37 38 38 38 37 37 36 35 34 33 32 31 31 30 30 29 29 28 28 27 26 26 25 25 25
37 38 38 38 38 39 39 39 39 39 38 38 37 36 36 36 35 35 36 36 36 35 34 32 31 31 30 29 28 28 27 27 26 25 24 24 23 22 22 22 21 21 21
37 37 37 37 37 37 37 37 37 37 36 35 34 34 33 33 33 33 33 32 32 31 29 28 27 26 26 25 24 23 23 22 21 21 21 20 19 19 19 18 18 18 18
Wind_Direction
213 213 215 216 218 222 222 224 227 229 232 234 231 234 236 238 243 248 253 256 258 258 260 262 262 263 265 267 269 272 275 277 279 280 281 282 283 284 284 284 284 285 285
218 216 215 216 220 224 224 228 231 232 236 235 233 235 238 244 248 251 256 259 260 260 263 264 266 266 268 269 270 273 275 277 279 280 281 282 283 284 284 284 283 283 284
214 217 221 222 223 223 225 231 234 235 236 237 237 239 243 248 250 253 258 260 262 264 266 267 268 269 269 270 271 273 275 277 279 279 281 282 283 283 283 283 284 283 283
217 221 226 226 224 227 231 234 236 237 239 239 242 246 250 252 254 257 259 262 264 267 268 269 270 270 271 272 272 274 275 277 278 279 280 280 281 282 283 283 284 284 284
225 225 225 227 230 235 237 238 239 240 241 244 249 251 254 256 258 260 264 266 267 269 269 270 270 272 273 273 273 273 274 276 278 279 280 280 281 282 282 282 283 284 283
236 236 235 235 237 240 242 244 246 246 247 249 253 256 259 261 263 265 267 269 269 269 270 272 273 274 275 275 274 275 276 277 278 279 280 280 280 280 280 281 281 282 282
246 246 246 246 247 247 248 251 252 253 255 256 258 261 264 265 265 267 267 268 269 270 271 273 274 275 275 275 276 276 277 278 278 279 280 281 280 280 280 280 280 281 281
251 251 251 251 252 253 254 255 256 258 260 262 264 266 268 269 270 271 270 271 274 274 275 276 276 276 276 276 277 277 278 279 278 279 280 280 281 281 281 281 281 281 281
256 254 253 254 255 257 258 259 260 261 263 265 267 270 270 270 272 273 274 276 277 278 278 278 277 276 276 276 277 279 280 280 280 280 281 282 283 283 283 283 282 282 281
259 257 254 255 257 260 263 265 266 266 267 270 270 270 271 271 272 273 275 276 277 278 279 279 278 278 277 278 278 279 280 281 282 282 282 282 283 284 284 285 284 282 282
258 259 259 259 260 263 266 267 269 270 271 273 273 273 273 273 274 275 276 277 278 279 279 279 279 279 280 280 280 281 282 283 283 283 284 284 284 284 284 284 284 284 283
259 259 259 260 262 264 266 268 270 270 271 274 274 275 275 276 277 278 278 278 279 279 279 279 279 279 281 281 281 282 283 284 284 284 283 284 284 285 285 285 284 284 284
260 259 260 260 262 264 266 269 272 273 273 274 274 275 276 277 278 279 279 279 278 278 279 280 281 281 281 282 282 283 283 283 283 284 284 283 284 285 285 285 286 286 286
259 261 263 263 264 267 270 272 274 275 277 278 279 278 278 278 278 279 280 280 280 279 279 280 281 281 282 282 283 283 284 284 284 285 285 284 285 285 285 286 286 287 287
262 263 266 265 265 269 272 274 275 276 278 279 280 281 281 281 281 282 282 282 281 281 282 282 282 282 282 283 283 284 285 285 285 285 285 285 285 286 286 286 287 287 287
264 267 268 270 270 271 273 276 277 279 279 280 281 281 281 282 283 284 284 283 283 283 283 283 283 284 283 284 284 284 284 285 286 286 286 286 286 286 287 287 287 287 287
269 272 274 275 276 277 278 279 279 280 281 281 282 283 283 284 285 285 286 285 285 285 285 286 286 286 285 285 285 285 285 285 285 285 286 287 288 288 287 288 288 288 288
274 277 280 282 282 282 283 284 284 284 284 284 284 285 285 286 287 287 288 288 287 287 287 287 287 287 287 286 287 287 286 286 285 286 286 287 288 289 289 289 289 288 288
280 282 283 284 285 285 286 286 286 287 288 288 288 288 288 289 289 289 289 289 289 289 288 288 288 288 288 288 288 287 286 286 287 287 287 287 288 289 289 289 289 288 288
283 284 285 286 287 288 288 289 289 289 289 289 290 290 291 290 290 291 291 291 290 290 290 290 289 289 288 288 288 287 287 288 289 289 288 288 288 288 288 287 287 287 287
287 288 289 289 290 290 291 291 291 291 291 291 292 292 293 293 293 293 294 293 293 292 292 293 293 292 291 291 290 289 289 289 289 289 289 288 288 287 286 285 286 287 287
292 293 294 294 294 294 294 294 294 295 295 294 294 294 294 294 294 295 295 295 295 294 294 294 294 294 293 293 292 292 291 290 289 290 290 290 290 288 286 285 286 287 287
296 296 297 297 296 296 296 296 296 296 296 296 296 296 296 295 295 296 296 296 296 296 296 296 296 295 294 294 293 293 292 291 290 290 290 290 289 288 286 285 285 286 287
298 299 299 298 297 297 297 296 297 297 297 298 297 297 296 296 296 297 297 298 298 298 297 297 297 296 296 295 294 293 293 293 292 291 291 291 291 289 287 286 286 286 286
300 300 300 299 298 297 297 297 297 298 298 298 297 296 296 297 297 298 299 300 301 300 300 299 299 299 297 296 294 295 296 296 295 294 293 293 292 291 290 290 289 289 287
301 301 300 299 299 298 298 298 298 298 299 299 299 299 299 300 300 301 303 304 304 303 303 302 301 302 302 299 297 297 298 298 297 295 295 296 295 295 295 293 292 290 288
Height
5825 5827 5830 5833 5836 5839 5842 5845 5847 5850 5852 5855 5857 5860 5862 5864 5865 5867 5868 5869 5870 5870 5870 5871 5871 5872 5872 5871 5871 5871 5870 5870 5869 5868 5867 5866 5865 5863 5862 5861 5860 5859 5858
5823 5826 5828 5831 5834 5836 5839 5842 5844 5847 5849 5852 5854 5856 5858 5860 5861 5862 5863 5864 5864 5865 5865 5866 5866 5866 5866 5866 5865 5865 5864 5863 5862 5861 5860 5859 5858 5857 5855 5854 5852 5851 5850
5823 5825 5827 5829 5832 5834 5836 5839 5841 5844 5846 5848 5850 5852 5854 5855 5856 5857 5858 5859 5859 5860 5860 5860 5860 5860 5859 5859 5859 5858 5857 5856 5855 5854 5853 5852 5850 5849 5847 5846 5844 5843 5841
5822 5824 5825 5827 5829 5831 5833 5836 5838 5840 5842 5843 5846 5848 5849 5850 5851 5852 5853 5853 5853 5853 5853 5853 5853 5853 5852 5851 5851 5850 5849 5848 5847 5846 5844 5843 5841 5840 5838 5837 5835 5834 5832
5821 5822 5824 5825 5827 5829 5831 5832 5834 5836 5838 5840 5842 5843 5844 5845 5845 5846 5846 5846 5846 5846 5846 5845 5845 5844 5844 5842 5842 5841 5840 5839 5838 5836 5835 5833 5832 5830 5829 5827 5825 5823 5822
5820 5821 5822 5823 5825 5826 5828 5829 5831 5832 5834 5836 5837 5837 5838 5838 5839 5839 5839 5839 5838 5838 5838 5837 5836 5836 5835 5833 5832 5831 5831 5829 5828 5826 5825 5823 5822 5820 5818 5816 5814 5812 5811
5818 5819 5820 5821 5822 5824 5825 5826 5827 5829 5830 5831 5831 5832 5832 5832 5832 5832 5831 5831 5830 5830 5829 5828 5827 5826 5825 5823 5822 5821 5820 5818 5817 5816 5814 5812 5810 5808 5806 5804 5802 5800 5799
5815 5816 5817 5818 5819 5820 5821 5822 5823 5824 5825 5825 5825 5825 5825 5825 5824 5824 5823 5822 5821 5821 5820 5818 5817 5815 5814 5813 5811 5810 5808 5807 5805 5803 5802 5800 5798 5795 5793 5791 5789 5787 5786
5811 5812 5813 5813 5814 5815 5815 5816 5817 5817 5818 5818 5818 5817 5817 5817 5816 5815 5814 5813 5812 5811 5809 5808 5806 5805 5804 5802 5801 5799 5797 5796 5793 5791 5789 5787 5784 5782 5780 5777 5775 5773 5772
5806 5807 5808 5808 5809 5809 5810 5810 5810 5810 5810 5810 5809 5809 5809 5808 5807 5806 5805 5804 5803 5801 5799 5797 5796 5794 5792 5790 5788 5787 5785 5783 5780 5777 5775 5773 5771 5768 5765 5763 5760 5757 5756
5800 5801 5802 5802 5803 5803 5803 5803 5803 5803 5802 5802 5801 5800 5799 5798 5797 5796 5795 5793 5792 5790 5788 5786 5784 5782 5780 5778 5776 5774 5772 5769 5766 5764 5761 5758 5756 5753 5750 5747 5745 5742 5739
5794 5794 5795 5796 5796 5796 5796 5795 5795 5795 5794 5793 5792 5791 5790 5789 5787 5786 5785 5783 5781 5779 5777 5774 5772 5770 5768 5765 5763 5761 5758 5755 5752 5749 5747 5744 5741 5738 5734 5731 5728 5725 5723
5787 5787 5788 5788 5788 5788 5788 5788 5787 5786 5785 5784 5783 5782 5780 5779 5777 5776 5774 5772 5769 5767 5765 5762 5760 5757 5755 5752 5749 5746 5743 5740 5737 5734 5731 5728 5725 5722 5718 5714 5711 5709 5706
5781 5781 5780 5780 5780 5780 5780 5779 5778 5778 5776 5775 5773 5772 5770 5768 5766 5764 5762 5759 5757 5755 5752 5749 5747 5743 5740 5738 5734 5731 5728 5725 5721 5718 5715 5712 5708 5705 5701 5698 5694 5691 5689
5773 5773 5773 5772 5771 5771 5770 5769 5768 5767 5766 5765 5763 5761 5759 5757 5755 5752 5750 5747 5744 5741 5738 5735 5732 5729 5725 5722 5719 5716 5712 5709 5706 5702 5699 5695 5691 5688 5684 5680 5677 5674 5671
5765 5765 5764 5764 5763 5762 5760 5759 5758 5757 5756 5754 5752 5750 5747 5745 5742 5740 5737 5733 5730 5727 5723 5720 5717 5713 5710 5707 5703 5699 5696 5693 5689 5686 5682 5679 5675 5671 5667 5663 5660 5656 5653
5757 5757 5756 5755 5754 5753 5751 5750 5748 5747 5744 5742 5740 5738 5735 5732 5729 5726 5722 5719 5715 5711 5708 5704 5701 5698 5694 5691 5687 5683 5680 5676 5673 5669 5665 5662 5658 5655 5651 5647 5643 5640 5637
5750 5749 5748 5746 5745 5744 5742 5740 5738 5735 5733 5730 5728 5725 5722 5718 5715 5711 5707 5703 5700 5696 5693 5689 5686 5682 5678 5675 5671 5667 5664 5660 5656 5653 5649 5646 5642 5639 5635 5632 5628 5625 5622
5742 5741 5740 5738 5736 5734 5732 5730 5727 5724 5721 5718 5714 5711 5708 5704 5700 5697 5692 5689 5685 5681 5677 5673 5670 5666 5663 5659 5655 5651 5648 5644 5641 5637 5634 5631 5627 5624 5621 5617 5614 5611 5608
5735 5733 5732 5730 5727 5725 5722 5719 5715 5712 5708 5705 5701 5698 5694 5690 5686 5682 5678 5674 5670 5666 5663 5659 5655 5651 5647 5643 5640 5636 5633 5629 5626 5622 5619 5616 5613 5610 5607 5604 5601 5599 5596
5726 5724 5722 5720 5717 5713 5710 5707 5703 5699 5695 5691 5688 5684 5680 5676 5672 5668 5664 5660 5656 5653 5649 5645 5641 5637 5633 5629 5626 5622 5619 5615 5612 5609 5605 5602 5599 5596 5594 5591 5589 5587 5584
5717 5714 5711 5708 5705 5701 5697 5694 5690 5686 5682 5678 5674 5671 5667 5663 5659 5655 5652 5648 5644 5640 5636 5632 5628 5624 5620 5616 5612 5609 5605 5602 5599 5596 5593 5590 5587 5584 5582 5580 5578 5576 5573
5706 5703 5699 5696 5692 5689 5685 5681 5677 5674 5670 5666 5662 5658 5655 5651 5647 5643 5640 5636 5632 5628 5623 5619 5615 5611 5607 5603 5600 5596 5593 5590 5587 5584 5582 5579 5576 5574 5571 5570 5568 5566 5564
5695 5692 5688 5685 5681 5677 5673 5669 5665 5662 5658 5654 5650 5646 5643 5639 5636 5632 5628 5624 5620 5615 5611 5607 5603 5599 5596 5592 5588 5585 5582 5579 5577 5574 5572 5569 5567 5564 5562 5560 5559 5557 5555
5684 5681 5677 5674 5670 5666 5662 5658 5654 5650 5646 5643 5639 5635 5632 5628 5624 5621 5617 5612 5608 5604 5600 5596 5592 5589 5585 5582 5579 5576 5573 5571 5568 5565 5563 5561 5559 5556 5554 5553 5551 5550 5548
5674 5670 5666 5663 5659 5655 5651 5647 5643 5639 5635 5631 5628 5624 5621 5617 5614 5610 5606 5602 5598 5594 5590 5586 5583 5580 5577 5574 5571 5568 5566 5563 5561 5558 5556 5554 5552 5550 5548 5546 5545 5543 5542